GSAT0202 (GALILEO 6)

Last updated on Sun Jun 21 2026 00:02:55 GMT+0000 (Coordinated Universal Time)

1 40129U 14050B 26171.36737896 -.00000081 00000+0 00000+0 0 9990 2 40129 48.8886 272.3914 1676264 180.2437 179.7117 1.85520612 80545
UTC large
Height (km)
Speed (km/s)
/
Latitude / Longitude
Inclination (degrees)
Orbital Period (minutes)
Azimuth
Elevation
Range (km)
Doppler Factor

Next 0 passes for location: London (51.5072 / 0.1276)

No passes found over London.
GSAT0202 (GALILEO 6)